Weather History for Seminole, TX

Change the Weather History Date:

Thursday, March 14, 2013

  Actual Average (KHOB) Record (KHOB)
Temperature  
Mean Temperature 59 °F -  
Max Temperature 82 °F 65 °F 82 °F (1955)
Min Temperature 37 °F 38 °F 21 °F (1954)
Degree Days  
Heating Degree Days 6    
Growing Degree Days 9 (Base 50)    
Moisture  
Dew Point 25 °F    
Average Humidity 31    
Maximum Humidity 65    
Minimum Humidity 10    
Precipitation  
Precipitation 0.00 in - - ()
Sea Level Pressure  
Sea Level Pressure 30.22 in    
Wind  
Wind Speed 6 mph (WSW)    
Max Wind Speed 13 mph    
Max Gust Speed 18 mph    
Visibility 10 miles    
Events      
Averages and records for this station are not official NWS values.
T = Trace of Precipitation, MM = Missing Value Source: NWS Daily Summary

Daily Weather History Graph

Daily Weather History Graph

Search for Another Location

Airport:

Trip Planner

Search our weather history database for the weather conditions in past years. The results will help you decide how hot, cold, wet, or windy it might be!

Date:

Astronomy

Mar. 14, 2013 Rise Set
Actual Time 8:01 AM CDT 7:58 PM CDT
Civil Twilight 7:37 AM CDT 8:22 PM CDT
Nautical Twilight 7:08 AM CDT 8:51 PM CDT
Astronomical Twilight 6:39 AM CDT 9:19 PM CDT
Moon 9:28 AM CDT (3/14) 11:03 PM CDT (3/14)
Length of Visible Light 12h 45m
Length of Day
11h 56m
Waxing Crescent, 9% of the Moon is Illuminated
Mar 14
Waxing Crescent
Mar 19
First Quarter
Mar 27
Full
Apr 2
Last Quarter
Apr 10
New

Hourly Weather History & Observations

Time (CDT) Temp. Windchill Dew Point Humidity Pressure Visibility Wind Dir Wind Speed Gust Speed Precip Events Conditions
12:35 AM 51.1 °F - 22.8 °F 33% 30.27 in 10.0 mi SSW 9.2 mph - N/A   Clear
12:55 AM 51.4 °F - 23.5 °F 34% 30.26 in 10.0 mi SSW 8.1 mph - N/A   Clear
1:15 AM 50.0 °F - 23.9 °F 36% 30.26 in 10.0 mi SSW 6.9 mph - N/A   Clear
1:35 AM 48.0 °F - 24.1 °F 39% 30.26 in 10.0 mi SSW 4.6 mph - N/A   Clear
1:55 AM 47.8 °F - 24.8 °F 41% 30.25 in 10.0 mi SSW 4.6 mph - N/A   Clear
2:15 AM 47.7 °F - 25.7 °F 42% 30.26 in 10.0 mi SW 4.6 mph - N/A   Clear
2:35 AM 47.5 °F - 26.6 °F 44% 30.26 in 10.0 mi SSW 4.6 mph - N/A   Clear
2:55 AM 45.3 °F - 25.7 °F 46% 30.26 in 10.0 mi Calm Calm - N/A   Clear
3:15 AM 46.2 °F - 26.4 °F 46% 30.25 in 10.0 mi Calm Calm - N/A   Clear
3:35 AM 47.5 °F - 27.7 °F 46% 30.24 in 10.0 mi SSW 4.6 mph - N/A   Clear
4:15 AM 46.4 °F - 28.9 °F 51% 30.23 in 10.0 mi Calm Calm - N/A   Clear
4:35 AM 43.0 °F - 27.3 °F 54% 30.23 in 10.0 mi Calm Calm - N/A   Clear
4:55 AM 42.6 °F - 27.3 °F 55% 30.23 in 10.0 mi Calm Calm - N/A   Clear
5:15 AM 40.3 °F - 26.6 °F 58% 30.23 in 10.0 mi Calm Calm - N/A   Clear
5:35 AM 40.8 °F - 28.2 °F 61% 30.23 in 10.0 mi Calm Calm - N/A   Clear
5:55 AM 43.0 °F - 28.4 °F 56% 30.23 in 10.0 mi Calm Calm - N/A   Clear
6:15 AM 40.1 °F 38.0 °F 27.9 °F 62% 30.23 in 10.0 mi WSW 3.5 mph - N/A   Clear
6:35 AM 41.4 °F - 28.8 °F 61% 30.24 in 10.0 mi Calm Calm - N/A   Clear
6:55 AM 38.7 °F 36.3 °F 26.8 °F 62% 30.25 in 10.0 mi WNW 3.5 mph - N/A   Clear
7:15 AM 37.6 °F 34.0 °F 26.6 °F 65% 30.25 in 10.0 mi NNW 4.6 mph - N/A   Clear
7:35 AM 37.9 °F 33.5 °F 26.8 °F 64% 30.26 in 10.0 mi NW 5.8 mph - N/A   Clear
7:55 AM 39.4 °F 36.1 °F 28.0 °F 64% 30.25 in 10.0 mi WNW 4.6 mph - N/A   Clear
8:15 AM 39.2 °F 37.0 °F 28.4 °F 65% 30.26 in 10.0 mi WNW 3.5 mph - N/A   Clear
9:15 AM 47.1 °F - 31.1 °F 54% 30.28 in 10.0 mi Calm Calm - N/A   Clear
9:35 AM 49.5 °F - 31.3 °F 50% 30.28 in 10.0 mi SW 3.5 mph - N/A   Clear
9:55 AM 52.2 °F - 31.5 °F 45% 30.28 in 10.0 mi SW 5.8 mph - N/A   Clear
10:15 AM 56.8 °F - 30.9 °F 37% 30.28 in 10.0 mi SW 9.2 mph - N/A   Clear
10:35 AM 59.2 °F - 30.7 °F 34% 30.28 in 10.0 mi SSW 9.2 mph - N/A   Clear
10:55 AM 62.1 °F - 30.6 °F 31% 30.28 in 10.0 mi SW 10.4 mph - N/A   Clear
11:15 AM 65.1 °F - 30.2 °F 27% 30.28 in 10.0 mi SW 8.1 mph - N/A   Clear
11:35 AM 67.1 °F - 29.7 °F 25% 30.28 in 10.0 mi SW 6.9 mph - N/A   Clear
11:55 AM 70.0 °F - 27.5 °F 20% 30.28 in 10.0 mi SW 8.1 mph - N/A   Clear
12:15 PM 72.0 °F - 25.3 °F 18% 30.27 in 10.0 mi WSW 10.4 mph - N/A   Clear
12:35 PM 73.8 °F - 24.8 °F 16% 30.27 in 10.0 mi West 9.2 mph - N/A   Clear
12:55 PM 75.6 °F - 23.2 °F 14% 30.26 in 10.0 mi WSW 9.2 mph - N/A   Clear
1:15 PM 76.8 °F - 23.0 °F 14% 30.26 in 10.0 mi West 9.2 mph - N/A   Clear
1:35 PM 77.9 °F - 22.5 °F 13% 30.25 in 10.0 mi West 8.1 mph - N/A   Clear
1:55 PM 78.3 °F - 21.9 °F 12% 30.24 in 10.0 mi WSW 4.6 mph 9.2 mph N/A   Clear
2:15 PM 79.0 °F - 21.2 °F 12% 30.23 in 10.0 mi SSW 6.9 mph - N/A   Clear
2:35 PM 79.2 °F - 20.8 °F 11% 30.22 in 10.0 mi West 6.9 mph - N/A   Clear
2:55 PM 79.3 °F - 21.0 °F 11% 30.21 in 10.0 mi WSW 10.4 mph 17.3 mph N/A   Clear
3:15 PM 80.6 °F - 21.0 °F 11% 30.20 in 10.0 mi SW 5.8 mph - N/A   Clear
3:35 PM 81.5 °F - 21.7 °F 11% 30.19 in 10.0 mi SW 12.7 mph 16.1 mph N/A   Clear
3:55 PM 81.3 °F - 21.4 °F 11% 30.18 in 10.0 mi SW 11.5 mph 18.4 mph N/A   Clear
4:15 PM 81.0 °F - 20.3 °F 11% 30.17 in 10.0 mi West 8.1 mph - N/A   Clear
4:55 PM 81.0 °F - 20.1 °F 10% 30.17 in 10.0 mi West 12.7 mph 17.3 mph N/A   Clear
5:15 PM 81.0 °F - 20.5 °F 11% 30.16 in 10.0 mi WNW 10.4 mph 17.3 mph N/A   Clear
5:35 PM 81.9 °F - 20.3 °F 10% 30.16 in 10.0 mi WSW 9.2 mph - N/A   Clear
5:55 PM 81.3 °F - 20.7 °F 11% 30.16 in 10.0 mi West 11.5 mph - N/A   Clear
6:15 PM 80.6 °F - 19.9 °F 10% 30.15 in 10.0 mi NW 5.8 mph - N/A   Clear
6:35 PM 80.4 °F - 19.9 °F 11% 30.15 in 10.0 mi WNW 4.6 mph - N/A   Clear
6:55 PM 79.9 °F - 19.6 °F 11% 30.15 in 10.0 mi Calm Calm - N/A   Clear
7:15 PM 79.2 °F - 19.8 °F 11% 30.15 in 10.0 mi West 4.6 mph - N/A   Clear
7:35 PM 77.0 °F - 19.4 °F 12% 30.15 in 10.0 mi SW 4.6 mph - N/A   Clear
7:55 PM 73.6 °F - 19.9 °F 13% 30.15 in 10.0 mi Calm Calm - N/A   Clear
8:15 PM 71.6 °F - 19.2 °F 14% 30.15 in 10.0 mi SW 6.9 mph - N/A   Clear
8:55 PM 67.1 °F - 19.4 °F 16% 30.16 in 10.0 mi SW 6.9 mph - N/A   Clear
9:15 PM 63.9 °F - 19.9 °F 19% 30.16 in 5.0 mi SW 6.9 mph - N/A   Haze
9:35 PM 61.9 °F - 19.0 °F 19% 30.16 in 10.0 mi Calm Calm - N/A   Clear
9:55 PM 60.3 °F - 20.3 °F 21% 30.16 in 10.0 mi Calm Calm - N/A   Clear
10:15 PM 58.8 °F - 20.1 °F 22% 30.16 in 10.0 mi SW 5.8 mph - N/A   Clear
10:55 PM 61.5 °F - 22.8 °F 23% 30.18 in 10.0 mi SSW 11.5 mph - N/A   Clear
11:15 PM 59.4 °F - 24.3 °F 26% 30.18 in 10.0 mi SSW 9.2 mph - N/A   Clear
11:35 PM 59.0 °F - 27.3 °F 30% 30.18 in 10.0 mi SW 8.1 mph - N/A   Clear
11:55 PM 55.8 °F - 27.5 °F 34% 30.19 in 10.0 mi WSW 8.1 mph - N/A   Clear